User: anonymous   Login
Location: Unspecified
(0.0000°N, 0.0000°E)
Time: 00:20:12
(UTC+00:00)
Language:

USA 105 - Orbit

View from above orbital plane
View from above orbital plane
View from above satellite
View from above satellite

Ground track
Ground track

The orbit data is extracted from the following two-line orbital elements,

1 23223U 94054A   17066.51302935 0.00000000  00000-0  00000-0 0    05
2 23223  10.8418  35.2706 0032797 141.3289 218.9220  1.00283000    03
Epoch (UTC): 07 March 2017 12:18:45
Eccentricity: 0.0032797
inclination: 10.8418°
perigee height: 35645 km
apogee height: 35921 km
right ascension of ascending node: 35.2706°
argument of perigee: 141.3289°
revolutions per day: 1.00283000
mean anomaly at epoch: 218.9220°
orbit number at epoch: 0

The dashed part of the orbit path shows where the satellite is in the earth's shadow,  

DLR